User: anonymous   Login
Location: Unspecified
(0.0000°N, 0.0000°E)
Time: 03:02:53
(UTC+00:00)
Language:

HO-68 - Orbit

View from above orbital plane
View from above orbital plane
View from above satellite
View from above satellite

Ground track
Ground track

The orbit data is extracted from the following two-line orbital elements,

1 36122U 09072B   17293.74860399 -.00000056  00000-0 -34994-4 0  9996
2 36122 100.0927 314.4520 0006940 308.7922  51.2571 13.16341783377144
Epoch (UTC): 20 October 2017 17:57:59
Eccentricity: 0.0006940
inclination: 100.0927°
perigee height: 1193 km
apogee height: 1204 km
right ascension of ascending node: 314.4520°
argument of perigee: 308.7922°
revolutions per day: 13.16341783
mean anomaly at epoch: 51.2571°
orbit number at epoch: 37714

The dashed part of the orbit path shows where the satellite is in the earth's shadow,  

DLR